Location: Caltech
(34.1382°N, 118.1253°W)
Time: 08:52:31
(UTC-07:00)

FENGYUN 3A - Visible Passes

Search period start: 20 April 2014 00:00
Search period end: 30 April 2014 00:00
Orbit: 820 x 834 km, 98.6° (Epoch: 20 April)

Date Brightness Start Highest point End Pass type
(mag) Time Alt. Az. Time Alt. Az. Time Alt. Az.
20 Apr 4.3 21:18:10 35° ENE 21:18:26 35° ENE 21:23:15 10° N visible
20 Apr 5.6 22:59:40 23° W 22:59:40 23° W 23:02:56 10° NW visible
21 Apr 4.8 20:59:10 23° E 20:59:55 24° ENE 21:04:05 10° NNE visible
21 Apr 4.9 22:40:40 35° W 22:40:40 35° W 22:44:48 10° NNW visible
22 Apr 5.3 20:40:09 15° E 20:41:26 16° ENE 20:44:35 10° NNE visible
22 Apr 4.2 22:21:39 54° WNW 22:21:39 54° WNW 22:26:25 10° NNW visible
23 Apr 5.7 20:22:19 10° ENE 20:23:01 10° ENE 20:23:43 10° NE visible
23 Apr 3.6 22:02:39 82° NW 22:02:39 82° NW 22:07:50 10° NNW visible
24 Apr 3.6 21:43:39 63° E 21:43:48 63° ENE 21:49:06 10° N visible
24 Apr 6.2 23:25:09 13° W 23:25:09 13° W 23:26:45 10° WNW visible
25 Apr 4.1 21:24:39 40° E 21:25:13 41° ENE 21:30:12 10° N visible
25 Apr 5.7 23:06:09 20° W 23:06:09 20° W 23:09:27 10° NW visible
26 Apr 4.6 21:05:39 26° E 21:06:40 28° ENE 21:11:08 10° NNE visible
26 Apr 5.1 22:47:09 31° W 22:47:09 31° W 22:51:27 10° NW visible
27 Apr 5.1 20:46:38 17° E 20:48:10 19° ENE 20:51:47 10° NNE visible
27 Apr 4.3 22:28:08 47° W 22:28:08 47° W 22:33:09 10° NNW visible
28 Apr 5.6 20:27:38 10° E 20:29:44 12° ENE 20:31:49 10° NE visible
28 Apr 3.6 22:09:08 73° WSW 22:09:16 73° WSW 22:14:38 10° NNW visible
29 Apr 3.5 21:50:08 69° ESE 21:50:36 74° ENE 21:55:57 10° N visible
29 Apr 6.3 23:31:38 10° W 23:31:38 10° W 23:32:19 10° W visible
